CST,Max TemperatureF,Mean TemperatureF,Min TemperatureF,Max Dew PointF,MeanDew PointF,Min DewpointF,Max Humidity, Mean Humidity, Min Humidity, Max Sea Level PressureIn, Mean Sea Level PressureIn, Min Sea Level PressureIn, Max VisibilityMiles, Mean VisibilityMiles, Min VisibilityMiles, Max Wind SpeedMPH, Mean Wind SpeedMPH, Max Gust SpeedMPH,PrecipitationIn, CloudCover, Events, WindDirDegrees
2013-12-1,44,34,24,29,25,21,92,71,49,30.17,30.10,30.01,9,7,6,12,4,14,0.00,5,,14
2013-12-2,42,34,25,34,29,23,96,77,57,29.99,29.85,29.75,10,6,2,14,6,18,0.04,7,Rain-Snow,118
2013-12-3,45,41,36,45,40,34,100,96,92,29.74,29.71,29.67,2,1,0,13,6,16,0.04,8,Fog-Rain,120
2013-12-4,52,42,32,50,45,29,100,93,86,29.74,29.63,29.51,10,3,0,24,10,36,0.05,8,Fog-Rain,178
2013-12-5,32,25,17,28,15,8,85,72,59,30.32,30.04,29.73,10,10,9,29,16,36,T,7,Snow,281
2013-12-6,19,14,9,8,4,1,76,64,51,30.62,30.46,30.31,10,10,10,15,9,18,0.00,4,,323
2013-12-7,18,12,5,5,1,-1,83,65,47,30.76,30.69,30.62,10,10,10,10,5,14,0.00,2,,324
2013-12-8,24,17,10,21,15,2,96,77,58,30.64,30.21,29.96,10,4,0,14,7,18,0.21,8,Fog-Snow,80
2013-12-9,23,8,-7,20,5,-11,92,79,66,30.28,30.14,29.96,10,9,3,21,11,29,0.01,4,Snow,256
2013-12-10,20,6,-9,10,2,-12,83,70,56,30.33,30.16,29.99,10,9,2,28,12,35,T,5,Snow,233
2013-12-11,17,6,-6,12,4,-12,88,72,55,30.62,30.43,30.27,10,6,1,18,8,23,0.06,5,Snow,268
2013-12-12,17,5,-8,8,0,-12,83,71,58,30.59,30.39,30.25,10,10,10,18,7,24,0.00,6,,221
2013-12-13,29,19,8,25,17,5,92,77,62,30.24,30.17,30.11,10,9,7,15,7,18,T,7,Snow,60
2013-12-14,30,24,17,27,22,15,92,85,77,30.12,30.03,29.96,10,5,1,21,11,25,0.09,8,Snow,18
2013-12-15,21,16,10,16,4,-1,84,73,61,30.18,30.09,29.96,10,10,8,23,12,30,T,7,Snow,294
2013-12-16,16,11,6,14,6,-5,88,73,57,30.20,30.10,30.03,10,6,0,10,4,13,0.06,8,Snow,204
2013-12-17,34,25,16,24,17,11,92,73,54,30.14,30.05,29.97,10,6,2,28,12,36,0.01,6,Snow,259
2013-12-18,32,22,11,24,15,7,84,71,58,30.18,30.01,29.84,10,10,10,25,11,30,0.00,4,,199
2013-12-19,35,28,21,31,27,19,92,81,70,29.96,29.89,29.83,10,7,2,16,8,20,0.07,8,Rain,66
2013-12-20,34,30,25,31,27,23,100,93,85,29.87,29.83,29.76,10,4,2,17,9,20,0.15,8,Rain,11
2013-12-21,33,29,25,30,27,23,100,96,92,29.90,29.81,29.67,10,3,1,18,9,23,0.02,8,Rain-Snow,16
2013-12-22,33,29,24,30,24,20,92,84,75,30.17,29.85,29.65,10,5,0,20,10,25,0.56,8,Fog-Snow,352
2013-12-23,24,8,-8,19,2,-13,88,78,68,30.53,30.37,30.14,10,9,4,17,10,69,T,4,Snow,272
2013-12-24,17,3,-11,11,-5,-15,88,80,72,30.64,30.52,30.37,10,9,1,15,5,18,0.02,5,Snow,198
2013-12-25,25,21,17,21,17,11,88,81,73,30.33,30.19,30.11,10,6,2,17,10,22,0.04,8,Snow,232
2013-12-26,30,20,9,24,16,6,84,79,73,30.30,30.23,30.15,10,9,4,17,6,23,T,7,Snow,209
2013-12-27,40,28,15,29,21,12,100,82,64,30.31,30.23,30.11,10,4,0,18,7,25,T,4,Fog-Snow,199
2013-12-28,42,33,24,31,28,23,100,83,65,30.12,29.99,29.81,10,10,8,16,9,20,0.00,1,,192
2013-12-29,36,20,3,30,17,-6,89,76,62,30.29,30.01,29.79,10,9,2,24,14,32,T,7,Snow,327
2013-12-30,5,-1,-7,0,-8,-15,79,68,56,30.40,30.31,30.21,10,7,2,14,4,18,0.05,6,Snow,312
2013-12-31,9,1,-8,5,0,-11,91,85,79,30.40,30.34,30.26,10,5,1,15,3,18,0.21,6,Snow,323